Lacon, IL

8:12 AM CST on December 11, 2019 (GMT -0600)
Lacon

Weather History for KC75 - October, 2019

Change the Weather History Date:

Wednesday, October 30, 2019

  Actual Average (WUND) Record (WUND)
Temperature  
Mean Temperature 34 °F -  
Max Temperature 36 °F - - (-1)
Min Temperature 32 °F - - (-1)
Degree Days  
Heating Degree Days 31    
Moisture  
Dew Point 33 °F    
Average Humidity 98    
Maximum Humidity 100    
Minimum Humidity 84    
Precipitation  
Precipitation 0.78 in - - ()
Sea Level Pressure  
Sea Level Pressure 30.15 in    
Wind  
Wind Speed 5 mph (North)    
Max Wind Speed 13 mph    
Max Gust Speed 20 mph    
Visibility 3 miles    
Events Rain , Snow    
Averages and records for this station are not official NWS values.
T = Trace of Precipitation, MM = Missing Value Source: NWS Daily Summary

Daily Weather History Graph

Daily Weather History Graph

Search for Another Location

Airport or City:

Astronomy

Oct. 30, 2019 Rise Set
Actual Time 7:25 AM CDT 5:55 PM CDT
Civil Twilight 6:57 AM CDT 6:24 PM CDT
Nautical Twilight 6:24 AM CDT 6:56 PM CDT
Astronomical Twilight 5:52 AM CDT 7:28 PM CDT
Moon 10:09 AM CDT (10/30) 8:02 PM CDT (10/30)
Length of Visible Light 11h 27m
Length of Day
10h 30m
Waxing Crescent, 9% of the Moon is Illuminated
Oct 30
Waxing Crescent
Nov 4
First Quarter
Nov 12
Full
Nov 19
Last Quarter
Nov 26
New

Hourly Weather History & Observations

Time (CDT) Temp. Windchill Dew Point Humidity Pressure Visibility Wind Dir Wind Speed Gust Speed Precip Events Conditions
12:15 AM 35.4 °F - 30.9 °F 84% 30.31 in 10.0 mi Calm Calm - N/A Rain Light Rain
12:35 AM 35.1 °F - 31.6 °F 87% 30.31 in 10.0 mi Calm Calm - N/A Rain Light Rain
12:55 AM 35.2 °F - 32.5 °F 90% 30.32 in 7.0 mi Calm Calm - N/A Rain Light Rain
1:15 AM 34.9 °F 29.9 °F 32.2 °F 90% 30.32 in 7.0 mi NNW 5.8 mph - N/A Rain Rain
1:35 AM 33.4 °F 29.1 °F 31.8 °F 94% 30.31 in 3.0 mi North 4.6 mph - N/A Snow Light Snow
1:55 AM 32.5 °F 29.3 °F 31.6 °F 96% 30.31 in 2.0 mi NE 3.5 mph - 0.03 in Snow Light Snow
2:15 AM 32.2 °F 28.9 °F 31.8 °F 99% 30.30 in 1.8 mi NNE 3.5 mph - 0.03 in Snow Light Snow
2:35 AM 32.0 °F 26.4 °F 31.8 °F 99% 30.28 in 2.5 mi NE 5.8 mph - 0.11 in Snow Light Snow
2:55 AM 32.2 °F 25.8 °F 32.0 °F 99% 30.26 in 2.5 mi NNE 6.9 mph - 0.16 in Snow Light Snow
3:35 AM 32.2 °F 28.9 °F 32.0 °F 99% 30.26 in 3.0 mi NNE 3.5 mph - 0.06 in Rain Heavy Rain
3:55 AM 32.2 °F 28.9 °F 32.0 °F 99% 30.26 in 3.0 mi NNE 3.5 mph - 0.10 in Rain Rain
4:15 AM 32.2 °F 27.7 °F 32.0 °F 99% 30.26 in 3.0 mi NE 4.6 mph - 0.04 in Rain Rain
4:35 AM 32.2 °F 26.7 °F 32.0 °F 99% 30.25 in 4.0 mi NE 5.8 mph - 0.07 in Rain Rain
4:55 AM 32.2 °F 26.7 °F 32.0 °F 99% 30.26 in 3.0 mi NE 5.8 mph - 0.12 in Snow Light Snow
5:15 AM 32.4 °F 27.9 °F 32.0 °F 99% 30.26 in 3.0 mi NE 4.6 mph - 0.03 in Snow Light Snow
5:35 AM 32.2 °F 28.9 °F 31.8 °F 99% 30.26 in 3.0 mi NE 3.5 mph - 0.06 in Snow Light Snow
5:55 AM 32.2 °F 28.9 °F 32.0 °F 99% 30.26 in 3.0 mi NE 3.5 mph - 0.10 in Snow Light Snow
6:15 AM 32.0 °F 28.7 °F 31.8 °F 99% 30.25 in 2.5 mi North 3.5 mph - 0.03 in Snow Light Snow
6:35 AM 32.0 °F 27.5 °F 32.0 °F 100% 30.24 in 2.5 mi NE 4.6 mph - 0.07 in Snow Light Snow
6:55 AM 32.2 °F 28.9 °F 32.0 °F 99% 30.25 in 5.0 mi NNE 3.5 mph - 0.07 in Snow Light Snow
7:15 AM 32.2 °F - 32.0 °F 99% 30.24 in 3.0 mi Calm Calm - 0.01 in Rain Light Rain
7:35 AM 32.2 °F 28.9 °F 32.0 °F 99% 30.23 in 2.5 mi NNE 3.5 mph - 0.03 in Snow Light Snow
7:55 AM 32.4 °F 29.1 °F 32.0 °F 99% 30.23 in 2.5 mi NNE 3.5 mph - 0.05 in Snow Light Snow
8:15 AM 32.4 °F 29.1 °F 32.0 °F 99% 30.25 in 2.5 mi North 3.5 mph - 0.01 in Snow Light Snow
8:35 AM 32.4 °F 27.9 °F 32.0 °F 99% 30.24 in 2.0 mi North 4.6 mph - 0.04 in Snow Light Snow
8:50 AM 32.4 °F 29.1 °F 32.0 °F 99% 30.23 in 3.0 mi North 3.5 mph - 0.05 in Snow Light Snow
9:15 AM 32.7 °F 27.3 °F 32.0 °F 97% 30.23 in 2.5 mi NNE 5.8 mph - 0.01 in Snow Light Snow
9:55 AM 33.3 °F 27.9 °F 32.7 °F 98% 30.21 in 5.0 mi NNE 5.8 mph - 0.03 in Rain Light Rain
10:15 AM 33.4 °F 28.1 °F 32.9 °F 98% 30.21 in 5.0 mi North 5.8 mph - N/A Rain Light Rain
10:35 AM 33.8 °F 27.7 °F 32.9 °F 96% 30.20 in 5.0 mi NNE 6.9 mph - N/A Rain Light Rain
10:55 AM 34.2 °F 30.0 °F 33.4 °F 97% 30.18 in 5.0 mi NE 4.6 mph - N/A Rain Light Rain
11:15 AM 34.2 °F 29.0 °F 33.3 °F 97% 30.18 in 5.0 mi NNE 5.8 mph - N/A   Light Drizzle
11:30 AM 34.2 °F 29.0 °F 33.4 °F 97% 30.17 in 5.0 mi North 5.8 mph - N/A   Drizzle
11:55 AM 34.5 °F 29.4 °F 33.6 °F 97% 30.18 in 3.0 mi North 5.8 mph - N/A   Drizzle
12:15 PM 34.7 °F 29.6 °F 33.8 °F 97% 30.16 in 2.5 mi NNE 5.8 mph - N/A   Overcast
12:30 PM 34.7 °F 29.6 °F 34.0 °F 97% 30.16 in 2.0 mi North 5.8 mph - N/A   Light Drizzle
12:55 PM 34.9 °F 30.8 °F 34.2 °F 97% 30.14 in 1.2 mi NNE 4.6 mph - N/A   Heavy Drizzle
1:15 PM 35.1 °F 29.3 °F 34.7 °F 99% 30.13 in 1.2 mi North 6.9 mph - N/A Rain Light Rain
1:35 PM 35.1 °F 28.6 °F 34.3 °F 97% 30.12 in 1.2 mi North 8.1 mph - N/A Rain Light Rain
1:55 PM 35.1 °F 27.4 °F 34.7 °F 99% 30.11 in 1.5 mi North 10.4 mph - N/A   Drizzle
2:15 PM 35.6 °F 29.2 °F 35.2 °F 99% 30.09 in 1.5 mi North 8.1 mph - N/A Rain Light Rain
2:35 PM 36.0 °F 30.3 °F 35.6 °F 99% 30.08 in 2.0 mi North 6.9 mph - N/A   Drizzle
2:55 PM 35.8 °F 28.8 °F 35.2 °F 98% 30.07 in 2.0 mi NNE 9.2 mph - N/A   Drizzle
3:15 PM 36.1 °F 30.6 °F 35.6 °F 98% 30.06 in 2.0 mi North 6.9 mph - N/A   Drizzle
3:35 PM 36.3 °F 30.1 °F 35.6 °F 97% 30.07 in 2.0 mi North 8.1 mph - 0.01 in   Light Drizzle
3:50 PM 36.0 °F 30.3 °F 35.6 °F 99% 30.07 in 2.5 mi North 6.9 mph - 0.01 in   Light Drizzle
4:15 PM 36.0 °F 29.0 °F 35.4 °F 98% 30.05 in 1.5 mi North 9.2 mph 16.1 mph N/A Rain Light Rain
4:35 PM 36.0 °F 29.6 °F 35.6 °F 99% 30.06 in 1.8 mi NNW 8.1 mph - N/A Rain Light Rain
4:55 PM 35.6 °F 28.0 °F 35.1 °F 98% 30.05 in 1.2 mi North 10.4 mph - N/A Rain Light Rain
5:15 PM 35.6 °F 28.0 °F 35.1 °F 98% 30.05 in 1.0 mi North 10.4 mph - N/A Rain Light Rain
5:35 PM 35.6 °F 29.2 °F 35.1 °F 98% 30.04 in 1.2 mi North 8.1 mph - N/A   Drizzle
5:55 PM 35.8 °F 30.1 °F 35.2 °F 98% 30.04 in 1.5 mi North 6.9 mph - N/A   Light Drizzle
6:15 PM 35.8 °F 30.9 °F 35.2 °F 98% 30.06 in 2.5 mi North 5.8 mph - N/A   Drizzle
6:35 PM 35.6 °F 28.6 °F 35.4 °F 99% 30.07 in 2.5 mi North 9.2 mph - N/A   Light Drizzle
6:55 PM 35.8 °F 30.1 °F 35.6 °F 99% 30.05 in 2.5 mi North 6.9 mph - N/A   Heavy Drizzle
7:15 PM 36.0 °F 29.6 °F 35.6 °F 99% 30.04 in 3.0 mi North 8.1 mph - N/A   Drizzle
7:35 PM 35.6 °F 28.6 °F 35.1 °F 98% 30.03 in 3.0 mi North 9.2 mph - N/A   Drizzle
7:55 PM 35.1 °F 27.9 °F 34.7 °F 99% 30.03 in 3.0 mi North 9.2 mph - N/A   Drizzle
8:15 PM 34.7 °F 26.9 °F 34.0 °F 97% 30.03 in 3.0 mi North 10.4 mph 17.3 mph N/A   Drizzle
8:35 PM 34.0 °F 26.0 °F 33.4 °F 98% 30.03 in 2.5 mi North 10.4 mph - N/A Rain Light Rain
8:55 PM 33.8 °F 25.3 °F 33.3 °F 98% 30.02 in 3.0 mi North 11.5 mph - N/A Rain Light Rain
9:15 PM 33.1 °F 25.5 °F 32.7 °F 99% 30.01 in 4.0 mi North 9.2 mph 18.4 mph N/A Rain Rain
9:35 PM 32.9 °F 24.7 °F 32.4 °F 98% 30.03 in 2.5 mi NNW 10.4 mph 16.1 mph N/A Snow Light Snow
9:55 PM 32.5 °F 24.2 °F 32.0 °F 98% 30.00 in 2.5 mi North 10.4 mph - 0.03 in Snow Light Snow
10:15 PM 32.2 °F 26.7 °F 32.0 °F 99% 30.00 in 3.0 mi North 5.8 mph - 0.02 in Snow Light Snow
10:35 PM 32.2 °F 23.2 °F 32.0 °F 99% 30.01 in 3.0 mi North 11.5 mph - 0.02 in Snow Light Snow
10:55 PM 32.0 °F 22.5 °F 31.6 °F 99% 29.99 in 4.0 mi North 12.7 mph 19.6 mph 0.02 in Snow Light Snow
11:15 PM 32.0 °F 23.6 °F 31.1 °F 96% 29.97 in 5.0 mi North 10.4 mph 17.3 mph N/A Snow Light Snow
11:35 PM 32.0 °F 23.0 °F 31.1 °F 96% 29.99 in 3.0 mi NNW 11.5 mph 17.3 mph 0.01 in Snow Light Snow
11:50 PM 32.0 °F 24.8 °F 30.9 °F 96% 29.97 in 5.0 mi North 8.1 mph 16.1 mph 0.01 in Snow Light Snow